Time,TemperatureF,DewpointF,PressureIn,WindDirection,WindDirectionDegrees,WindSpeedMPH,WindSpeedGustMPH,Humidity,HourlyPrecipIn,Conditions,Clouds,dailyrainin,SoftwareType,DateUTC
2013-04-17 00:04:00,76.1,71.0,30.17,NE,47,4.0,10.0,83,0.00,,,0.00,weatherlink.com 1.10,2013-04-17 04:04:00,
2013-04-17 00:19:00,76.0,71.0,30.17,ENE,61,5.0,11.0,83,0.00,,,0.00,weatherlink.com 1.10,2013-04-17 04:19:00,
2013-04-17 00:34:00,76.1,71.0,30.17,NE,40,8.0,11.0,83,0.00,,,0.00,weatherlink.com 1.10,2013-04-17 04:34:00,
2013-04-17 00:49:00,76.2,71.0,30.16,NE,46,6.0,9.0,84,0.00,,,0.00,weatherlink.com 1.10,2013-04-17 04:49:00,
2013-04-17 01:04:00,76.1,71.0,30.16,ENE,65,6.0,9.0,84,0.00,,,0.00,weatherlink.com 1.10,2013-04-17 05:04:00,
2013-04-17 01:19:00,75.9,70.0,30.16,NE,56,8.0,9.0,83,0.00,,,0.00,weatherlink.com 1.10,2013-04-17 05:19:00,
2013-04-17 01:34:00,75.8,70.0,30.15,ENE,64,6.0,9.0,83,0.00,,,0.00,weatherlink.com 1.10,2013-04-17 05:34:00,
2013-04-17 01:49:00,75.7,70.0,30.15,East,84,10.0,10.0,83,0.00,,,0.00,weatherlink.com 1.10,2013-04-17 05:49:00,
2013-04-17 02:04:00,75.6,70.0,30.14,NE,54,5.0,9.0,83,0.00,,,0.00,weatherlink.com 1.10,2013-04-17 06:04:00,
2013-04-17 02:19:00,75.5,70.0,30.14,NE,43,3.0,9.0,83,0.00,,,0.00,weatherlink.com 1.10,2013-04-17 06:19:00,
2013-04-17 02:34:00,75.5,70.0,30.14,NE,53,3.0,9.0,84,0.00,,,0.00,weatherlink.com 1.10,2013-04-17 06:34:00,
2013-04-17 02:49:00,75.3,70.0,30.13,NE,44,4.0,8.0,82,0.00,,,0.00,weatherlink.com 1.10,2013-04-17 06:49:00,
2013-04-17 03:04:00,75.4,70.0,30.13,ENE,74,4.0,9.0,82,0.00,,,0.00,weatherlink.com 1.10,2013-04-17 07:04:00,
2013-04-17 03:19:00,75.4,70.0,30.13,NE,44,2.0,7.0,82,0.00,,,0.00,weatherlink.com 1.10,2013-04-17 07:19:00,
2013-04-17 03:34:00,75.3,70.0,30.12,ENE,65,4.0,-999.0,82,-99.99,,,0.00,weatherlink.com 1.10,2013-04-17 07:34:00,
2013-04-17 03:49:00,75.2,70.0,30.12,NE,47,5.0,8.0,83,0.00,,,0.00,weatherlink.com 1.10,2013-04-17 07:49:00,
2013-04-17 04:05:00,75.2,70.0,30.12,NE,40,5.0,9.0,83,0.00,,,0.00,weatherlink.com 1.10,2013-04-17 08:05:00,
2013-04-17 04:19:00,75.2,69.0,30.12,NE,44,4.0,8.0,82,0.00,,,0.00,weatherlink.com 1.10,2013-04-17 08:19:00,
2013-04-17 04:34:00,75.1,70.0,30.12,NE,47,4.0,6.0,83,0.00,,,0.00,weatherlink.com 1.10,2013-04-17 08:34:00,
2013-04-17 04:49:00,74.8,69.0,30.12,NNE,33,3.0,5.0,81,0.00,,,0.00,weatherlink.com 1.10,2013-04-17 08:49:00,
2013-04-17 05:04:00,74.7,69.0,30.12,NE,56,3.0,4.0,82,0.00,,,0.00,weatherlink.com 1.10,2013-04-17 09:04:00,
2013-04-17 05:20:00,74.5,69.0,30.11,ENE,60,2.0,4.0,83,0.00,,,0.00,weatherlink.com 1.10,2013-04-17 09:20:00,
2013-04-17 05:35:00,74.4,69.0,30.12,NE,49,2.0,5.0,83,0.00,,,0.00,weatherlink.com 1.10,2013-04-17 09:35:00,
2013-04-17 05:50:00,74.4,69.0,30.12,NE,51,3.0,5.0,83,0.00,,,0.00,weatherlink.com 1.10,2013-04-17 09:50:00,
2013-04-17 06:05:00,74.4,69.0,30.12,NNE,33,5.0,6.0,84,0.00,,,0.00,weatherlink.com 1.10,2013-04-17 10:05:00,
2013-04-17 06:20:00,74.4,69.0,30.12,NNE,33,1.0,5.0,84,0.00,,,0.00,weatherlink.com 1.10,2013-04-17 10:20:00,
2013-04-17 06:35:00,74.5,69.0,30.13,NE,39,0.0,4.0,83,0.00,,,0.00,weatherlink.com 1.10,2013-04-17 10:35:00,
2013-04-17 06:50:00,74.8,69.0,30.14,NE,43,4.0,6.0,83,0.00,,,0.00,weatherlink.com 1.10,2013-04-17 10:50:00,
2013-04-17 07:05:00,74.9,69.0,30.14,NE,49,3.0,5.0,83,0.00,,,0.00,weatherlink.com 1.10,2013-04-17 11:05:00,
2013-04-17 07:20:00,75.0,69.0,30.15,NE,36,2.0,5.0,82,0.00,,,0.00,weatherlink.com 1.10,2013-04-17 11:20:00,
2013-04-17 07:35:00,75.0,69.0,30.15,NE,40,1.0,6.0,82,0.00,,,0.00,weatherlink.com 1.10,2013-04-17 11:35:00,
2013-04-17 07:50:00,75.4,69.0,30.16,NE,48,5.0,7.0,80,0.00,,,0.00,weatherlink.com 1.10,2013-04-17 11:50:00,
2013-04-17 08:05:00,76.4,69.0,30.16,NNE,30,5.0,7.0,79,0.00,,,0.00,weatherlink.com 1.10,2013-04-17 12:05:00,
2013-04-17 08:20:00,77.0,69.0,30.16,NNE,18,8.0,8.0,77,0.00,,,0.00,weatherlink.com 1.10,2013-04-17 12:20:00,
2013-04-17 08:35:00,77.0,70.0,30.16,NNE,33,9.0,9.0,78,0.00,,,0.00,weatherlink.com 1.10,2013-04-17 12:35:00,
2013-04-17 08:50:00,77.0,69.0,30.17,NE,56,6.0,10.0,77,0.00,,,0.00,weatherlink.com 1.10,2013-04-17 12:50:00,
2013-04-17 09:05:00,77.3,69.0,30.17,NE,43,10.0,11.0,76,0.00,,,0.00,weatherlink.com 1.10,2013-04-17 13:05:00,
2013-04-17 09:20:00,77.5,69.0,30.17,NE,37,5.0,10.0,75,0.00,,,0.00,weatherlink.com 1.10,2013-04-17 13:20:00,
2013-04-17 09:35:00,78.1,70.0,30.17,North,8,3.0,9.0,75,0.00,,,0.00,weatherlink.com 1.10,2013-04-17 13:35:00,
2013-04-17 09:50:00,78.3,70.0,30.17,NNE,32,2.0,9.0,75,0.00,,,0.00,weatherlink.com 1.10,2013-04-17 13:50:00,
2013-04-17 10:05:00,78.0,69.0,30.17,NE,34,6.0,9.0,74,0.00,,,0.00,weatherlink.com 1.10,2013-04-17 14:05:00,
2013-04-17 10:20:00,77.8,69.0,30.17,ENE,58,5.0,12.0,73,0.00,,,0.00,weatherlink.com 1.10,2013-04-17 14:20:00,
2013-04-17 10:35:00,78.7,69.0,30.17,NE,46,8.0,10.0,72,0.00,,,0.00,weatherlink.com 1.10,2013-04-17 14:35:00,
2013-04-17 10:50:00,78.4,70.0,30.17,NE,39,7.0,13.0,74,0.00,,,0.00,weatherlink.com 1.10,2013-04-17 14:50:00,
2013-04-17 11:05:00,78.5,69.0,30.17,NE,39,6.0,11.0,72,0.00,,,0.00,weatherlink.com 1.10,2013-04-17 15:05:00,
2013-04-17 11:20:00,78.3,69.0,30.17,ENE,62,7.0,16.0,73,0.00,,,0.00,weatherlink.com 1.10,2013-04-17 15:20:00,
2013-04-17 11:50:00,78.3,69.0,30.16,NE,46,8.0,14.0,72,0.00,,,0.00,weatherlink.com 1.10,2013-04-17 15:50:00,
2013-04-17 12:05:00,78.2,69.0,30.16,NE,46,11.0,12.0,73,0.00,,,0.00,weatherlink.com 1.10,2013-04-17 16:05:00,
2013-04-17 12:20:00,78.2,69.0,30.16,ENE,72,10.0,12.0,73,0.00,,,0.00,weatherlink.com 1.10,2013-04-17 16:20:00,
2013-04-17 12:35:00,78.5,69.0,30.15,ENE,70,6.0,13.0,72,0.00,,,0.00,weatherlink.com 1.10,2013-04-17 16:35:00,
2013-04-17 12:50:00,78.1,68.0,30.15,NE,37,9.0,13.0,70,0.00,,,0.00,weatherlink.com 1.10,2013-04-17 16:50:00,
2013-04-17 13:05:00,78.9,69.0,30.14,ENE,74,5.0,11.0,71,0.00,,,0.00,weatherlink.com 1.10,2013-04-17 17:05:00,
2013-04-17 13:20:00,79.0,68.0,30.14,ENE,64,10.0,15.0,68,0.00,,,0.00,weatherlink.com 1.10,2013-04-17 17:20:00,
2013-04-17 13:35:00,78.9,68.0,30.14,NE,49,9.0,11.0,69,0.00,,,0.00,weatherlink.com 1.10,2013-04-17 17:35:00,
2013-04-17 13:50:00,78.8,67.0,30.13,NE,43,7.0,10.0,68,0.00,,,0.00,weatherlink.com 1.10,2013-04-17 17:50:00,
2013-04-17 14:05:00,78.8,68.0,30.13,NNE,32,6.0,11.0,69,0.00,,,0.00,weatherlink.com 1.10,2013-04-17 18:05:00,
2013-04-17 14:20:00,79.1,69.0,30.12,NE,46,6.0,11.0,70,0.00,,,0.00,weatherlink.com 1.10,2013-04-17 18:20:00,
2013-04-17 14:35:00,78.6,68.0,30.12,East,96,10.0,11.0,70,0.00,,,0.00,weatherlink.com 1.10,2013-04-17 18:35:00,
2013-04-17 14:50:00,79.0,68.0,30.11,ENE,58,6.0,11.0,70,0.00,,,0.00,weatherlink.com 1.10,2013-04-17 18:50:00,
2013-04-17 15:05:00,79.0,67.0,30.11,NE,56,2.0,11.0,66,0.00,,,0.00,weatherlink.com 1.10,2013-04-17 19:05:00,
2013-04-17 15:20:00,79.0,68.0,30.10,NE,49,6.0,10.0,68,0.00,,,0.00,weatherlink.com 1.10,2013-04-17 19:20:00,
2013-04-17 15:35:00,79.0,68.0,30.10,ENE,67,5.0,11.0,69,0.00,,,0.00,weatherlink.com 1.10,2013-04-17 19:35:00,
2013-04-17 15:50:00,79.0,68.0,30.10,ENE,78,8.0,12.0,68,0.00,,,0.00,weatherlink.com 1.10,2013-04-17 19:50:00,
2013-04-17 16:05:00,78.8,67.0,30.10,NE,46,5.0,9.0,67,0.00,,,0.00,weatherlink.com 1.10,2013-04-17 20:05:00,
2013-04-17 16:20:00,78.7,67.0,30.09,ENE,60,7.0,11.0,68,0.00,,,0.00,weatherlink.com 1.10,2013-04-17 20:20:00,
2013-04-17 16:35:00,78.1,66.0,30.09,NE,44,6.0,10.0,67,0.00,,,0.00,weatherlink.com 1.10,2013-04-17 20:35:00,
2013-04-17 16:50:00,78.0,66.0,30.09,NE,51,5.0,9.0,67,0.00,,,0.00,weatherlink.com 1.10,2013-04-17 20:50:00,
2013-04-17 17:05:00,78.0,67.0,30.09,NE,39,5.0,10.0,70,0.00,,,0.00,weatherlink.com 1.10,2013-04-17 21:05:00,
2013-04-17 17:20:00,78.2,67.0,30.09,NE,40,5.0,9.0,69,0.00,,,0.00,weatherlink.com 1.10,2013-04-17 21:20:00,
2013-04-17 17:35:00,78.2,66.0,30.09,ENE,58,5.0,9.0,67,0.00,,,0.00,weatherlink.com 1.10,2013-04-17 21:35:00,
2013-04-17 17:50:00,77.8,68.0,30.09,NE,41,8.0,10.0,71,0.00,,,0.00,weatherlink.com 1.10,2013-04-17 21:50:00,
2013-04-17 18:06:00,78.1,68.0,30.09,NNW,336,3.0,9.0,71,0.00,,,0.00,weatherlink.com 1.10,2013-04-17 22:06:00,
2013-04-17 18:21:00,77.5,67.0,30.09,NE,50,7.0,10.0,70,0.00,,,0.00,weatherlink.com 1.10,2013-04-17 22:21:00,
2013-04-17 18:36:00,77.3,67.0,30.09,NE,40,8.0,9.0,70,0.00,,,0.00,weatherlink.com 1.10,2013-04-17 22:36:00,
2013-04-17 18:51:00,77.1,67.0,30.10,NE,49,6.0,9.0,72,0.00,,,0.00,weatherlink.com 1.10,2013-04-17 22:51:00,
2013-04-17 19:06:00,76.9,68.0,30.10,NE,36,3.0,9.0,74,0.00,,,0.00,weatherlink.com 1.10,2013-04-17 23:06:00,
2013-04-17 19:21:00,76.4,67.0,30.11,NE,39,4.0,7.0,73,0.00,,,0.00,weatherlink.com 1.10,2013-04-17 23:21:00,
2013-04-17 19:36:00,76.2,67.0,30.11,North,8,3.0,7.0,74,0.00,,,0.00,weatherlink.com 1.10,2013-04-17 23:36:00,
2013-04-17 19:51:00,76.1,67.0,30.11,NE,51,4.0,7.0,74,0.00,,,0.00,weatherlink.com 1.10,2013-04-17 23:51:00,
2013-04-17 20:06:00,76.0,67.0,30.11,NE,36,7.0,9.0,73,0.00,,,0.00,weatherlink.com 1.10,2013-04-18 00:06:00,
2013-04-17 20:21:00,75.8,67.0,30.11,NE,47,4.0,8.0,73,0.00,,,0.00,weatherlink.com 1.10,2013-04-18 00:21:00,
2013-04-17 20:36:00,75.8,67.0,30.12,NE,47,4.0,7.0,74,0.00,,,0.00,weatherlink.com 1.10,2013-04-18 00:36:00,
2013-04-17 20:51:00,75.5,67.0,30.12,NE,46,3.0,5.0,76,0.00,,,0.00,weatherlink.com 1.10,2013-04-18 00:51:00,
2013-04-17 21:06:00,75.7,67.0,30.12,ENE,57,7.0,7.0,74,0.00,,,0.00,weatherlink.com 1.10,2013-04-18 01:06:00,
2013-04-17 21:21:00,75.7,67.0,30.12,NE,47,4.0,11.0,74,0.00,,,0.00,weatherlink.com 1.10,2013-04-18 01:21:00,
2013-04-17 21:41:00,75.7,66.0,30.12,ENE,77,4.0,9.0,73,0.00,,,0.00,weatherlink.com 1.10,2013-04-18 01:41:00,
2013-04-17 21:51:00,75.8,67.0,30.13,ENE,63,5.0,7.0,73,0.00,,,0.00,weatherlink.com 1.10,2013-04-18 01:51:00,
2013-04-17 22:06:00,75.9,67.0,30.13,ENE,58,4.0,8.0,74,0.00,,,0.00,weatherlink.com 1.10,2013-04-18 02:06:00,
2013-04-17 22:21:00,75.8,67.0,30.13,NE,50,6.0,11.0,74,0.00,,,0.00,weatherlink.com 1.10,2013-04-18 02:21:00,
2013-04-17 22:36:00,75.9,67.0,30.12,ENE,72,6.0,10.0,73,0.00,,,0.00,weatherlink.com 1.10,2013-04-18 02:36:00,
2013-04-17 23:21:00,75.7,67.0,30.12,NE,56,6.0,9.0,75,0.00,,,0.00,weatherlink.com 1.10,2013-04-18 03:21:00,
2013-04-17 23:36:00,75.8,68.0,30.11,ENE,65,6.0,7.0,76,0.00,,,0.00,weatherlink.com 1.10,2013-04-18 03:36:00,
2013-04-17 23:51:00,75.7,67.0,30.11,ENE,68,6.0,8.0,75,0.00,,,0.00,weatherlink.com 1.10,2013-04-18 03:51:00,